This demonstration page uses our WeatherBlox Daily Observations layout. Learn more.

Left ArrowRight Arrow

41.12389, -100.76542

Hourly Observations for July 15, 2022

Temp ( °F °C ) Dew Point ( °F °C ) Humidity (%) Winds ( mph kmh ) Pressure ( in mb ) Visibility ( mi km ) Precip ( " mm )
12:53 am 00:53 Clear 76 24.4 59 15 56 56 Calm 29.90 1013 10 16 0.00 0.00
1:53 am 01:53 Clear 74 23.3 60 15.6 62 62 SE 5 7 29.91 1013 10 16 0.00 0.00
2:53 am 02:53 Clear 71 21.7 60 15.6 68 68 Calm 29.92 1013 10 16 0.00 0.00
3:53 am 03:53 Clear 71 21.7 60 15.6 68 68 Calm 29.92 1013 10 16 0.00 0.00
4:53 am 04:53 Clear 68 20 60 15.6 76 76 Calm 29.94 1014 10 16 0.00 0.00
5:53 am 05:53 Clear 66 18.9 61 16.1 84 84 NW 5 7 29.96 1015 10 16 0.00 0.00
6:53 am 06:53 Sunny 69 20.6 61 16.1 76 76 NNW 9 15 29.97 1015 10 16 0.00 0.00
7:53 am 07:53 Sunny 74 23.3 63 17.2 69 69 Calm 29.97 1015 10 16 0.00 0.00
8:53 am 08:53 Sunny 82 27.8 63 17.2 53 53 NNE 9 15 29.97 1015 10 16 0.00 0.00
9:53 am 09:53 Sunny 88 31.1 65 18.3 46 46 NE 15 24 29.98 1015 10 16 0.00 0.00
10:53 am 10:53 Sunny 89 31.7 65 18.3 45 45 ENE 15 24 29.99 1016 10 16 0.00 0.00
11:53 am 11:53 Sunny 92 33.3 63 17.2 38 38 NE 14 22 29.99 1016 10 16 0.00 0.00
12:53 pm 12:53 Sunny 95 35 61 16.1 32 32 E 14 22 29.99 1016 10 16 0.00 0.00
1:53 pm 13:53 Sunny 97 36.1 62 16.7 32 32 ESE 9 15 29.98 1015 10 16 0.00 0.00
2:53 pm 14:53 Sunny 99 37.2 61 16.1 29 29 E 9 15 29.97 1015 10 16 0.00 0.00
3:53 pm 15:53 Sunny 99 37.2 59 15 27 27 NE 10 17 29.96 1015 10 16 0.00 0.00
4:53 pm 16:53 Sunny 99 37.2 57 13.9 25 25 ESE 13 20 29.95 1014 10 16 0.00 0.00
5:53 pm 17:53 Sunny 98 36.7 55 12.8 24 24 SE 13 20 29.94 1014 10 16 0.00 0.00
6:53 pm 18:53 Sunny 96 35.6 60 15.6 30 30 SE 13 20 29.93 1014 10 16 0.00 0.00
7:53 pm 19:53 Sunny 89 31.7 62 16.7 41 41 ESE 8 13 29.93 1014 10 16 0.00 0.00
8:53 pm 20:53 Sunny 83 28.3 65 18.3 55 55 E 6 9 29.93 1014 10 16 0.00 0.00
9:53 pm 21:53 Clear 83 28.3 63 17.2 51 51 ESE 6 9 29.95 1014 10 16 0.00 0.00
10:53 pm 22:53 Clear 79 26.1 66 18.9 65 65 ESE 5 7 29.96 1015 10 16 0.00 0.00
11:53 pm 23:53 Clear 79 26.1 67 19.4 67 67 E 5 7 29.96 1014 10 16 0.00 0.00

Powered by AerisWeather